TimeMDT,TemperatureF,Dew PointF,Humidity,Sea Level PressureIn,VisibilityMPH,Wind Direction,Wind SpeedMPH,Gust SpeedMPH,PrecipitationIn,Events,Conditions,WindDirDegrees,DateUTC
12:15 AM,6.8,1.4,79,30.07,10.0,West,4.6,-,N/A,,Clear,280,2013-03-24 06:15:00
12:35 AM,6.8,1.4,79,30.07,10.0,Calm,Calm,-,N/A,,Clear,0,2013-03-24 06:35:00
12:55 AM,6.8,-0.4,72,30.07,10.0,Calm,Calm,-,N/A,,Scattered Clouds,0,2013-03-24 06:55:00
1:35 AM,3.2,-2.2,78,30.07,10.0,NW,3.5,-,N/A,,Scattered Clouds,310,2013-03-24 07:35:00
1:55 AM,5.0,-2.2,72,30.07,10.0,WNW,5.8,-,N/A,,Clear,300,2013-03-24 07:55:00
2:15 AM,3.2,-4.0,72,30.06,10.0,NW,6.9,-,N/A,,Scattered Clouds,320,2013-03-24 08:15:00
2:35 AM,3.2,-4.0,72,30.07,10.0,NW,3.5,-,N/A,,Mostly Cloudy,320,2013-03-24 08:35:00
2:55 AM,3.2,-4.0,72,30.06,10.0,NW,5.8,-,N/A,,Mostly Cloudy,310,2013-03-24 08:55:00
3:15 AM,3.2,-4.0,72,30.05,10.0,NW,8.1,-,N/A,,Mostly Cloudy,310,2013-03-24 09:15:00
3:35 AM,3.2,-4.0,72,30.05,10.0,NW,8.1,-,N/A,,Overcast,310,2013-03-24 09:35:00
3:55 AM,3.2,-4.0,72,30.05,10.0,NW,9.2,-,N/A,,Overcast,310,2013-03-24 09:55:00
4:15 AM,3.2,-4.0,72,30.05,10.0,NW,6.9,-,N/A,,Overcast,320,2013-03-24 10:15:00
4:35 AM,3.2,-4.0,72,30.05,10.0,NW,6.9,-,N/A,,Overcast,310,2013-03-24 10:35:00
4:55 AM,3.2,-4.0,72,30.05,10.0,NNW,8.1,-,N/A,,Overcast,330,2013-03-24 10:55:00
5:15 AM,3.2,-4.0,72,30.05,10.0,WNW,8.1,-,N/A,,Overcast,300,2013-03-24 11:15:00
5:35 AM,3.2,-4.0,72,30.05,10.0,NNW,3.5,-,N/A,,Overcast,330,2013-03-24 11:35:00
5:55 AM,3.2,-5.8,66,30.05,10.0,WNW,8.1,-,N/A,,Overcast,290,2013-03-24 11:55:00
6:15 AM,1.4,-5.8,72,30.06,10.0,WNW,6.9,-,N/A,,Overcast,300,2013-03-24 12:15:00
6:35 AM,1.4,-5.8,72,30.06,10.0,WNW,6.9,-,N/A,,Overcast,300,2013-03-24 12:35:00
6:55 AM,1.4,-5.8,72,30.06,10.0,NW,4.6,-,N/A,,Overcast,310,2013-03-24 12:55:00
7:15 AM,1.4,-5.8,72,30.06,10.0,NW,8.1,-,N/A,,Overcast,310,2013-03-24 13:15:00
7:35 AM,1.4,-5.8,72,30.06,10.0,NW,6.9,-,N/A,,Mostly Cloudy,310,2013-03-24 13:35:00
7:55 AM,3.2,-4.0,72,30.07,10.0,NW,9.2,-,N/A,,Scattered Clouds,310,2013-03-24 13:55:00
8:15 AM,5.0,-4.0,66,30.07,10.0,NW,9.2,-,N/A,,Clear,310,2013-03-24 14:15:00
8:35 AM,6.8,-2.2,67,30.07,10.0,WNW,8.1,-,N/A,,Clear,300,2013-03-24 14:35:00
8:55 AM,8.6,-0.4,67,30.06,10.0,NW,6.9,-,N/A,,Clear,310,2013-03-24 14:55:00
9:15 AM,12.2,-0.4,57,30.06,10.0,WNW,10.4,-,N/A,,Clear,300,2013-03-24 15:15:00
9:35 AM,14.0,-0.4,53,30.06,10.0,NW,9.2,-,N/A,,Clear,310,2013-03-24 15:35:00
9:55 AM,17.6,3.2,53,30.06,10.0,NW,12.7,-,N/A,,Clear,310,2013-03-24 15:55:00
10:15 AM,19.4,1.4,46,30.06,10.0,NW,15.0,21.9,N/A,,Clear,310,2013-03-24 16:15:00
10:35 AM,19.4,-0.4,42,30.06,10.0,WNW,21.9,25.3,N/A,,Clear,300,2013-03-24 16:35:00
10:55 AM,19.4,-0.4,42,30.07,10.0,NW,18.4,26.5,N/A,,Clear,310,2013-03-24 16:55:00
11:15 AM,19.4,-2.2,39,30.07,10.0,NW,16.1,25.3,N/A,,Clear,320,2013-03-24 17:15:00
11:35 AM,21.2,-0.4,39,30.07,10.0,WNW,17.3,26.5,N/A,,Clear,300,2013-03-24 17:35:00
11:55 AM,21.2,-0.4,39,30.07,10.0,WNW,18.4,26.5,N/A,,Clear,300,2013-03-24 17:55:00
12:15 PM,21.2,-2.2,36,30.07,10.0,WNW,19.6,28.8,N/A,,Clear,300,2013-03-24 18:15:00
12:35 PM,21.2,-0.4,39,30.07,10.0,NW,23.0,28.8,N/A,,Clear,310,2013-03-24 18:35:00
12:55 PM,23.0,-0.4,36,30.07,10.0,WNW,15.0,24.2,N/A,,Clear,300,2013-03-24 18:55:00
1:15 PM,23.0,-0.4,36,30.07,10.0,West,13.8,23.0,N/A,,Clear,280,2013-03-24 19:15:00
1:35 PM,23.0,-0.4,36,30.06,10.0,WNW,15.0,24.2,N/A,,Clear,290,2013-03-24 19:35:00
1:55 PM,23.0,-0.4,36,30.06,10.0,WNW,16.1,24.2,N/A,,Clear,290,2013-03-24 19:55:00
2:15 PM,23.0,-0.4,36,30.06,10.0,West,15.0,25.3,N/A,,Clear,280,2013-03-24 20:15:00
2:35 PM,23.0,-0.4,36,30.05,10.0,West,13.8,24.2,N/A,,Clear,280,2013-03-24 20:35:00
2:55 PM,24.8,-2.2,31,30.06,10.0,WNW,19.6,26.5,N/A,,Clear,290,2013-03-24 20:55:00
3:15 PM,24.8,-0.4,34,30.05,10.0,West,19.6,32.2,N/A,,Clear,270,2013-03-24 21:15:00
3:35 PM,26.6,-2.2,29,30.05,10.0,NW,17.3,26.5,N/A,,Clear,310,2013-03-24 21:35:00
3:55 PM,24.8,-0.4,34,30.05,10.0,WNW,18.4,27.6,N/A,,Clear,290,2013-03-24 21:55:00
4:15 PM,26.6,-4.0,26,30.05,10.0,West,13.8,21.9,N/A,,Clear,280,2013-03-24 22:15:00
4:35 PM,24.8,-2.2,31,30.05,10.0,WNW,15.0,23.0,N/A,,Clear,300,2013-03-24 22:35:00
4:55 PM,26.6,-2.2,29,30.05,10.0,WNW,16.1,23.0,N/A,,Clear,290,2013-03-24 22:55:00
5:15 PM,26.6,-2.2,29,30.05,10.0,West,18.4,24.2,N/A,,Clear,280,2013-03-24 23:15:00
5:35 PM,26.6,-2.2,29,30.05,10.0,WNW,18.4,23.0,N/A,,Clear,300,2013-03-24 23:35:00
5:55 PM,24.8,-4.0,28,30.06,10.0,West,21.9,27.6,N/A,,Clear,280,2013-03-24 23:55:00
6:15 PM,24.8,-2.2,31,30.06,10.0,WNW,17.3,24.2,N/A,,Clear,300,2013-03-25 00:15:00
6:35 PM,23.0,-4.0,31,30.06,10.0,West,18.4,23.0,N/A,,Clear,280,2013-03-25 00:35:00
6:55 PM,23.0,-2.2,33,30.06,10.0,WNW,18.4,24.2,N/A,,Clear,290,2013-03-25 00:55:00
7:15 PM,23.0,-2.2,33,30.07,10.0,WNW,13.8,18.4,N/A,,Clear,290,2013-03-25 01:15:00
7:55 PM,19.4,-0.4,42,30.07,10.0,WNW,10.4,-,N/A,,Clear,300,2013-03-25 01:55:00
8:15 PM,19.4,1.4,46,30.08,10.0,WNW,10.4,-,N/A,,Clear,300,2013-03-25 02:15:00
8:35 PM,17.6,1.4,49,30.08,10.0,WNW,11.5,-,N/A,,Clear,300,2013-03-25 02:35:00
8:55 PM,15.8,3.2,58,30.09,10.0,WNW,6.9,-,N/A,,Clear,290,2013-03-25 02:55:00
9:15 PM,17.6,1.4,49,30.09,10.0,WNW,12.7,-,N/A,,Clear,300,2013-03-25 03:15:00
9:35 PM,15.8,3.2,58,30.10,10.0,WNW,8.1,-,N/A,,Clear,300,2013-03-25 03:35:00
9:55 PM,14.0,3.2,62,30.11,10.0,WNW,10.4,-,N/A,,Clear,300,2013-03-25 03:55:00
10:15 PM,14.0,3.2,62,30.11,10.0,NW,9.2,-,N/A,,Clear,310,2013-03-25 04:15:00
10:35 PM,14.0,3.2,62,30.11,10.0,WNW,8.1,-,N/A,,Clear,300,2013-03-25 04:35:00
10:55 PM,12.2,1.4,62,30.11,10.0,WNW,10.4,-,N/A,,Clear,290,2013-03-25 04:55:00
11:15 PM,10.4,3.2,73,30.11,10.0,NNW,8.1,-,N/A,,Clear,330,2013-03-25 05:15:00
11:35 PM,10.4,3.2,73,30.11,10.0,WNW,5.8,-,N/A,,Clear,300,2013-03-25 05:35:00
11:55 PM,10.4,3.2,73,30.11,10.0,West,5.8,-,N/A,,Clear,280,2013-03-25 05:55:00